Volver al catálogo

SL-12 R/B(2)

ActivoGEO
NORAD 17873·ROCKET BODY·🇷🇺 Russia

Lanzado Apr 25, 1979 desde Baikonur Cosmodrome

Loading…

TLE

ActualizadoSource: Space-Track

Época: Sep 14, 2026, 22:14 UTC

1 17873U 79035E   26257.92702743 -.00000196  00000-0  00000-0 0  9993
2 17873   5.0002 281.0119 0027243 258.4371 125.3267  1.00189420186078

Sigue SL-12 R/B(2) en tiempo real con AllMySat

Download on the App Store